Location: Newark
(44.4156°N, 12.1972°E)
Time: 07:11:02
(UTC+00:00)

N. Korean satellite - Visible Passes

Search period start: 18 January 2020 00:00
Search period end: 28 January 2020 00:00
Orbit: 454 x 508 km, 97.2° (Epoch: 17 January)

Date Brightness Start Highest point End Pass type
(mag) Time Alt. Az. Time Alt. Az. Time Alt. Az.
18 Jan 9.7 04:04:08 10° ENE 04:06:10 14° E 04:08:12 10° SE visible
18 Jan 7.0 05:36:27 10° N 05:39:42 36° WNW 05:42:57 10° SW visible
19 Jan 6.4 05:10:45 10° N 05:14:16 78° WNW 05:17:49 10° SSW visible
19 Jan 10.1 17:23:44 10° WSW 17:24:40 11° W 17:25:36 10° WNW visible
20 Jan 7.6 04:45:21 10° NNE 04:48:46 47° E 04:52:13 10° S visible
20 Jan 9.4 16:56:16 10° SSW 16:58:58 22° W 17:01:42 10° NW visible
21 Jan 9.0 04:20:18 10° NE 04:23:11 23° E 04:26:04 10° SSE visible
21 Jan 7.7 05:53:39 10° NNW 05:56:30 23° WNW 05:59:22 10° WSW visible
22 Jan 10.0 03:56:08 10° ENE 03:57:30 12° E 03:58:51 10° ESE visible
22 Jan 6.8 05:27:43 10° N 05:31:07 46° WNW 05:34:34 10° SSW visible
23 Jan 6.6 05:02:07 10° NNE 05:05:40 81° ESE 05:09:16 10° S visible
23 Jan 9.8 17:14:09 10° SW 17:15:57 14° W 17:17:48 10° WNW visible
24 Jan 8.1 04:36:48 10° NNE 04:40:08 37° E 04:43:30 10° SSE visible
24 Jan 8.9 16:47:20 10° SSW 16:50:18 27° W 16:53:17 10° NW visible
25 Jan 9.4 04:11:55 10° NE 04:14:31 19° E 04:17:08 10° SE visible
25 Jan 7.4 05:44:49 10° N 05:47:55 29° WNW 05:51:05 10° SW visible
26 Jan 6.5 05:19:00 10° N 05:22:32 60° WNW 05:26:06 10° SSW visible
27 Jan 7.0 04:53:29 10° NNE 04:57:03 63° E 05:00:39 10° S visible
27 Jan 9.7 17:04:54 10° SW 17:07:15 17° W 17:09:36 10° NW visible
